Вернуться в каталог

SCOUT G-1 DEB

АктивенPO
NORAD 28676·DEBRIS·🇺🇸 United States

Запущен Aug 25, 1988 с Vandenberg Space Force Base

Loading…

Ближайшие Пролёты (ближайшие 24 часа)

TLE

СвежийSource: Space-Track

Эпоха: Sep 12, 2026, 00:46 UTC

1 28676U 88074M   26255.03246834  .00000519  00000-0  79432-3 0  9999
2 28676  89.9639 357.8742 0088387 359.4899   0.6147 13.49132310651313

Отслеживайте SCOUT G-1 DEB в реальном времени с AllMySat

Download on the App Store